Previsão horária em Barrancas

Hoje, 24 Outubro, Sábado

Tempo Temperatura Precipitação Vento Pressão Humidade
00:00 +28°C° 0 mm 4 m/s 751 mmHg 80%
01:00 +28°C° 0 mm 3 m/s 751 mmHg 82%
02:00 +27°C° 0 mm 3 m/s 751 mmHg 83%
03:00 +27°C° 0 mm 2 m/s 751 mmHg 84%
04:00 +27°C° 0 mm 2 m/s 751 mmHg 85%
05:00 +26°C° 0 mm 1 m/s 751 mmHg 85%
06:00 +27°C° 0 mm 2 m/s 751 mmHg 82%
07:00 +28°C° 0 mm 3 m/s 752 mmHg 79%
08:00 +29°C° 0 mm 3 m/s 753 mmHg 76%
09:00 +30°C° 0 mm 3 m/s 753 mmHg 71%
10:00 +31°C° 0 mm 3 m/s 753 mmHg 66%
11:00 +33°C° 0 mm 3 m/s 753 mmHg 61%
12:00 +34°C° 0.1 mm 3 m/s 752 mmHg 59%
13:00 +34°C° 0.1 mm 2 m/s 751 mmHg 56%
14:00 +35°C° 0.1 mm 2 m/s 750 mmHg 54%
15:00 +35°C° 0.3 mm 2 m/s 749 mmHg 56%
16:00 +34°C° 0.3 mm 2 m/s 749 mmHg 57%
17:00 +34°C° 0.3 mm 2 m/s 749 mmHg 59%
18:00 +32°C° 0.3 mm 2 m/s 749 mmHg 65%
19:00 +31°C° 0.3 mm 2 m/s 749 mmHg 70%
20:00 +29°C° 0.3 mm 3 m/s 750 mmHg 76%
21:00 +29°C° 0 mm 3 m/s 750 mmHg 77%
22:00 +29°C° 0 mm 3 m/s 750 mmHg 79%
23:00 +28°C° 0 mm 3 m/s 750 mmHg 80%

Amanhã, 25 Outubro, Domingo

Tempo Temperatura Precipitação Vento Pressão Humidade
00:00 +28°C° 0.4 mm 3 m/s 750 mmHg 83%
01:00 +27°C° 0.4 mm 3 m/s 750 mmHg 85%
02:00 +27°C° 0.4 mm 3 m/s 750 mmHg 87%
03:00 +27°C° 0.3 mm 3 m/s 750 mmHg 88%
04:00 +26°C° 0.3 mm 2 m/s 750 mmHg 89%
05:00 +26°C° 0.3 mm 2 m/s 750 mmHg 90%
06:00 +27°C° 0.1 mm 3 m/s 751 mmHg 87%
07:00 +28°C° 0.1 mm 4 m/s 751 mmHg 83%
08:00 +28°C° 0.1 mm 5 m/s 752 mmHg 80%
09:00 +30°C° 0.1 mm 5 m/s 752 mmHg 73%
10:00 +33°C° 0.1 mm 5 m/s 752 mmHg 66%
11:00 +34°C° 0.1 mm 5 m/s 752 mmHg 59%
12:00 +35°C° 0 mm 5 m/s 751 mmHg 56%
13:00 +36°C° 0 mm 5 m/s 750 mmHg 52%
14:00 +37°C° 0 mm 4 m/s 749 mmHg 49%
15:00 +36°C° 0 mm 4 m/s 749 mmHg 50%
16:00 +36°C° 0 mm 4 m/s 749 mmHg 51%
17:00 +35°C° 0 mm 3 m/s 749 mmHg 53%
18:00 +34°C° 0.1 mm 3 m/s 749 mmHg 58%
19:00 +33°C° 0.1 mm 3 m/s 750 mmHg 63%
20:00 +30°C° 0.1 mm 3 m/s 750 mmHg 68%
21:00 +30°C° 0 mm 4 m/s 750 mmHg 71%
22:00 +29°C° 0 mm 4 m/s 750 mmHg 74%
23:00 +29°C° 0 mm 4 m/s 750 mmHg 77%

Depois de amanhã, 26 Outubro, Segunda-feira

Tempo Temperatura Precipitação Vento Pressão Humidade
00:00 +28°C° 0 mm 4 m/s 750 mmHg 79%
01:00 +28°C° 0 mm 4 m/s 750 mmHg 82%
02:00 +27°C° 0 mm 3 m/s 750 mmHg 84%
03:00 +27°C° 0 mm 3 m/s 750 mmHg 85%
04:00 +27°C° 0 mm 3 m/s 750 mmHg 85%
05:00 +26°C° 0 mm 2 m/s 750 mmHg 86%
06:00 +27°C° 0 mm 3 m/s 751 mmHg 83%
07:00 +28°C° 0 mm 4 m/s 751 mmHg 80%
08:00 +28°C° 0 mm 4 m/s 752 mmHg 77%
09:00 +30°C° 0 mm 4 m/s 752 mmHg 73%
10:00 +32°C° 0 mm 4 m/s 752 mmHg 68%
11:00 +33°C° 0 mm 4 m/s 752 mmHg 64%
12:00 +34°C° 0 mm 4 m/s 751 mmHg 60%
13:00 +34°C° 0 mm 3 m/s 750 mmHg 56%
14:00 +35°C° 0 mm 3 m/s 749 mmHg 53%
15:00 +35°C° 0 mm 3 m/s 749 mmHg 54%
16:00 +35°C° 0 mm 3 m/s 748 mmHg 55%
17:00 +34°C° 0 mm 3 m/s 748 mmHg 56%
18:00 +33°C° 0 mm 3 m/s 749 mmHg 61%
19:00 +32°C° 0 mm 4 m/s 750 mmHg 66%
20:00 +30°C° 0 mm 4 m/s 750 mmHg 70%
21:00 +29°C° 0 mm 4 m/s 750 mmHg 72%
22:00 +29°C° 0 mm 4 m/s 750 mmHg 75%
23:00 +28°C° 0 mm 5 m/s 751 mmHg 77%

, 27 Outubro, Terça-feira

Tempo Temperatura Precipitação Vento Pressão Humidade
00:00 +28°C° 0 mm 4 m/s 750 mmHg 78%
01:00 +27°C° 0 mm 4 m/s 750 mmHg 80%
02:00 +27°C° 0 mm 3 m/s 750 mmHg 81%
03:00 +27°C° 0 mm 3 m/s 750 mmHg 82%
04:00 +27°C° 0 mm 3 m/s 750 mmHg 83%
05:00 +26°C° 0 mm 3 m/s 750 mmHg 84%
06:00 +27°C° 0 mm 4 m/s 750 mmHg 81%
07:00 +28°C° 0 mm 4 m/s 751 mmHg 79%
08:00 +29°C° 0 mm 5 m/s 751 mmHg 76%
09:00 +30°C° 0 mm 5 m/s 751 mmHg 71%
10:00 +32°C° 0 mm 5 m/s 751 mmHg 66%
11:00 +33°C° 0 mm 5 m/s 751 mmHg 60%
12:00 +34°C° 0 mm 5 m/s 750 mmHg 58%
13:00 +35°C° 0 mm 5 m/s 749 mmHg 55%
14:00 +35°C° 0 mm 4 m/s 748 mmHg 52%
15:00 +35°C° 0 mm 4 m/s 748 mmHg 54%
16:00 +35°C° 0 mm 4 m/s 748 mmHg 55%
17:00 +34°C° 0 mm 4 m/s 747 mmHg 56%
18:00 +33°C° 0.2 mm 4 m/s 748 mmHg 62%
19:00 +32°C° 0.2 mm 4 m/s 748 mmHg 67%
20:00 +29°C° 0.2 mm 4 m/s 749 mmHg 72%
21:00 +29°C° 0 mm 4 m/s 749 mmHg 74%
22:00 +28°C° 0 mm 4 m/s 749 mmHg 76%
23:00 +28°C° 0 mm 5 m/s 749 mmHg 79%

27 Outubro, Terça-feira

Tempo Temperatura Precipitação Vento Pressão Humidade
00:00 +28°C° 0 mm 4 m/s 750 mmHg 78%
01:00 +27°C° 0 mm 4 m/s 750 mmHg 80%
02:00 +27°C° 0 mm 3 m/s 750 mmHg 81%
03:00 +27°C° 0 mm 3 m/s 750 mmHg 82%
04:00 +27°C° 0 mm 3 m/s 750 mmHg 83%
05:00 +26°C° 0 mm 3 m/s 750 mmHg 84%
06:00 +27°C° 0 mm 4 m/s 750 mmHg 81%
07:00 +28°C° 0 mm 4 m/s 751 mmHg 79%
08:00 +29°C° 0 mm 5 m/s 751 mmHg 76%
09:00 +30°C° 0 mm 5 m/s 751 mmHg 71%
10:00 +32°C° 0 mm 5 m/s 751 mmHg 66%
11:00 +33°C° 0 mm 5 m/s 751 mmHg 60%
12:00 +34°C° 0 mm 5 m/s 750 mmHg 58%
13:00 +35°C° 0 mm 5 m/s 749 mmHg 55%
14:00 +35°C° 0 mm 4 m/s 748 mmHg 52%
15:00 +35°C° 0 mm 4 m/s 748 mmHg 54%
16:00 +35°C° 0 mm 4 m/s 748 mmHg 55%
17:00 +34°C° 0 mm 4 m/s 747 mmHg 56%
18:00 +33°C° 0.2 mm 4 m/s 748 mmHg 62%
19:00 +32°C° 0.2 mm 4 m/s 748 mmHg 67%
20:00 +29°C° 0.2 mm 4 m/s 749 mmHg 72%
21:00 +29°C° 0 mm 4 m/s 749 mmHg 74%
22:00 +28°C° 0 mm 4 m/s 749 mmHg 76%
23:00 +28°C° 0 mm 5 m/s 749 mmHg 79%

28 Outubro, Quarta-feira

Tempo Temperatura Precipitação Vento Pressão Humidade
00:00 +28°C° 0 mm 4 m/s 749 mmHg 80%
01:00 +27°C° 0 mm 4 m/s 749 mmHg 82%
02:00 +27°C° 0 mm 3 m/s 748 mmHg 83%
03:00 +26°C° 0 mm 3 m/s 749 mmHg 85%
04:00 +26°C° 0 mm 3 m/s 749 mmHg 86%
05:00 +26°C° 0 mm 2 m/s 749 mmHg 88%
06:00 +27°C° 0 mm 3 m/s 749 mmHg 84%
07:00 +28°C° 0 mm 4 m/s 750 mmHg 81%
08:00 +29°C° 0 mm 5 m/s 750 mmHg 77%
09:00 +30°C° 0 mm 5 m/s 750 mmHg 71%
10:00 +33°C° 0 mm 5 m/s 750 mmHg 65%
11:00 +34°C° 0 mm 5 m/s 750 mmHg 58%
12:00 +35°C° 0 mm 5 m/s 749 mmHg 56%
13:00 +35°C° 0 mm 5 m/s 748 mmHg 54%
14:00 +36°C° 0 mm 4 m/s 747 mmHg 52%
15:00 +35°C° 0.1 mm 4 m/s 747 mmHg 54%
16:00 +35°C° 0.1 mm 4 m/s 747 mmHg 56%
17:00 +34°C° 0.1 mm 3 m/s 746 mmHg 58%
18:00 +33°C° 0.3 mm 4 m/s 747 mmHg 64%
19:00 +32°C° 0.3 mm 4 m/s 748 mmHg 69%
20:00 +29°C° 0.3 mm 4 m/s 748 mmHg 75%
21:00 +29°C° 0.1 mm 4 m/s 749 mmHg 76%
22:00 +28°C° 0.1 mm 4 m/s 749 mmHg 78%
23:00 +28°C° 0.1 mm 4 m/s 749 mmHg 79%

29 Outubro, Quinta-feira

Tempo Temperatura Precipitação Vento Pressão Humidade
00:00 +27°C° 0 mm 4 m/s 749 mmHg 80%
01:00 +27°C° 0 mm 3 m/s 749 mmHg 81%
02:00 +27°C° 0 mm 3 m/s 748 mmHg 82%
03:00 +26°C° 0 mm 3 m/s 748 mmHg 82%
04:00 +26°C° 0 mm 3 m/s 749 mmHg 83%
05:00 +26°C° 0 mm 3 m/s 749 mmHg 84%
06:00 +27°C° 0 mm 3 m/s 749 mmHg 81%
07:00 +28°C° 0 mm 4 m/s 750 mmHg 79%
08:00 +28°C° 0 mm 5 m/s 750 mmHg 76%
09:00 +30°C° 0 mm 5 m/s 750 mmHg 71%
10:00 +32°C° 0 mm 5 m/s 750 mmHg 66%
11:00 +33°C° 0 mm 5 m/s 750 mmHg 61%
12:00 +34°C° 0 mm 4 m/s 749 mmHg 58%
13:00 +35°C° 0 mm 4 m/s 748 mmHg 56%
14:00 +35°C° 0 mm 4 m/s 747 mmHg 53%
15:00 +35°C° 0 mm 3 m/s 747 mmHg 54%
16:00 +35°C° 0 mm 3 m/s 747 mmHg 55%
17:00 +35°C° 0 mm 3 m/s 747 mmHg 56%
18:00 +33°C° 0.1 mm 3 m/s 747 mmHg 62%
19:00 +32°C° 0.1 mm 4 m/s 748 mmHg 67%
20:00 +30°C° 0.1 mm 5 m/s 749 mmHg 72%
21:00 +29°C° 0.1 mm 5 m/s 749 mmHg 74%
22:00 +29°C° 0.1 mm 5 m/s 749 mmHg 76%
23:00 +28°C° 0.1 mm 5 m/s 750 mmHg 78%
Mostrar mais